Terminal Aerodrome Forecast
Issued by NWS Atlanta, GA

Home | Current Version | Previous Version | Text Only | Print | Product List | Glossary On
Versions: 1 2 3 4 5 6 7 8 9 10 11 12 13 14 15 16 17 18 19 20 21 22 23 24 25 26 27 28 29 30 31 32 33 34 35 36 37 38 39 40 41 42 43 44 45
000
FTUS42 KFFC 310000 AAA
TAFATL
TAF AMD
KATL 310057Z 3101/0106 15003KT P6SM VCSH SCT040 BKN100
      TEMPO 3101/3103 VRB15G25KT 3SM TSRA BKN040CB
     FM310300 VRB03KT P6SM FEW040 BKN100
     FM311400 23005KT P6SM SCT025 SCT250
     FM311800 24007KT P6SM SCT050 SCT150 PROB30 3120/3124 6SM TSRA
      BKN040CB
     FM010000 25004KT P6SM FEW050 SCT250=

USA.gov is the U.S. government's official web portal to all federal, state and local government web resources and services.